Flag for Netherlands Weather past 2 weeks in Utrecht, Netherlands

Now
41 °F

Passing clouds.


Feels Like: 38 °F
Forecast: 32 / 51 °F
Wind: 5 mph from North

Location: Amsterdam Schiphol Airport

Current Time: Apr 27, 2015 at 11:18:20 PM

Latest Report: Apr 27, 2015 at 10:55 PM


Visibility: N/A

Pressure: 29.89 "Hg

Humidity: 70%

Dew point: 32 °F

Location of UtrechtLocation

Historic Weather in Utrecht — Graph

°F

Utrecht temperature yesterday

Maximum temperature yesterday: 52 °F (at 12:55 AM)
Minimum temperature yesterday: 46 °F (at 10:55 PM)
Average temperature yesterday: 50 °F

Past Weeks' High & Low Weather Summary

 TemperatureHumidityPressure
High70 °F (Apr 15, 3:25 PM)100% (Apr 21, 4:55 AM)30.51 "Hg (Apr 21, 4:55 AM)
Low36 °F (Apr 19, 4:55 AM)34% (Apr 24, 4:55 PM)29.68 "Hg (Apr 25, 5:25 PM)
Average50 °F74%30.13 "Hg
* Reported Apr 12 9:25 PM — Apr 27 9:55 PM, Utrecht, Weather by CustomWeather, © 2015

Note: Actual official high and low records may vary slightly from our data, if they occured in-between our weather recording intervals... More about our weather records

Advertising

Utrecht weather history for previous 24 hours

 ConditionsComfort  
Time TempWeatherWind HumidityBarometerVisibility
9:55 PM
Mon, Apr 27
43 °FPassing clouds.7 mph66%29.89 "HgN/A
9:25 PM43 °FPassing clouds.9 mph61%29.89 "HgN/A
8:55 PM45 °FPassing clouds.8 mph57%29.86 "HgN/A
8:25 PM45 °FPassing clouds.9 mph57%29.86 "HgN/A
7:55 PM46 °FPassing clouds.10 mph53%29.86 "HgN/A
7:25 PM48 °FPassing clouds.10 mph50%29.86 "HgN/A
6:55 PM48 °FPassing clouds.13 mph46%29.83 "HgN/A
6:25 PM50 °FPassing clouds.14 mph47%29.83 "HgN/A
5:55 PM52 °FPassing clouds.14 mph44%29.83 "HgN/A
5:25 PM50 °FPassing clouds.14 mph50%29.83 "HgN/A
4:55 PM52 °FPassing clouds.15 mph44%29.83 "HgN/A
4:25 PM52 °FPassing clouds.12 mph47%29.83 "HgN/A
3:55 PM52 °FPassing clouds.13 mph44%29.83 "HgN/A
3:25 PM54 °FPassing clouds.12 mph44%29.83 "HgN/A
2:55 PM52 °FPassing clouds.13 mph44%29.83 "HgN/A
2:25 PM55 °FPassing clouds.14 mph55%29.83 "HgN/A
1:55 PM54 °FPassing clouds.13 mph51%29.83 "HgN/A
1:25 PM54 °FPassing clouds.14 mph51%29.83 "HgN/A
12:55 PM50 °FPassing clouds.10 mph58%29.80 "HgN/A
12:25 PM54 °FPassing clouds.12 mph51%29.80 "HgN/A
11:55 AM52 °FPassing clouds.13 mph54%29.80 "HgN/A
11:25 AM52 °FPassing clouds.13 mph62%29.80 "HgN/A
10:55 AM48 °FPassing clouds.12 mph66%29.80 "HgN/A
10:25 AM50 °FPassing clouds.13 mph62%29.80 "HgN/A
9:55 AM50 °FPassing clouds.10 mph62%29.80 "HgN/A
9:25 AM48 °FPassing clouds.13 mph66%29.80 "HgN/A
8:55 AM46 °FPassing clouds.10 mph71%29.77 "HgN/A
8:25 AM46 °FPassing clouds.9 mph71%29.77 "HgN/A
7:55 AM45 °FPassing clouds.7 mph81%29.77 "HgN/A
7:25 AM41 °FPassing clouds.7 mph87%29.77 "HgN/A
6:55 AM39 °FPassing clouds.6 mph87%29.74 "HgN/A
6:25 AM37 °FPassing clouds.6 mph93%29.74 "HgN/A
5:55 AM39 °FPassing clouds.6 mph87%29.74 "HgN/A
5:25 AM39 °FClear.6 mph87%29.74 "Hg10 mi
4:55 AM39 °FClear.7 mph87%29.74 "Hg10 mi
4:25 AM43 °FPassing clouds.6 mph81%29.74 "HgN/A
3:55 AM43 °FPassing clouds.7 mph81%29.74 "HgN/A
3:25 AM43 °FPassing clouds.9 mph81%29.74 "HgN/A
2:55 AM45 °FPassing clouds.9 mph81%29.74 "HgN/A
2:25 AM45 °FPassing clouds.10 mph81%29.74 "HgN/A
1:55 AM46 °FPassing clouds.9 mph76%29.74 "HgN/A
1:25 AM46 °FPassing clouds.12 mph76%29.74 "HgN/A
12:55 AM46 °FPassing clouds.10 mph76%29.74 "HgN/A
12:25 AM46 °FPassing clouds.10 mph82%29.74 "HgN/A
11:55 PM
Sun, Apr 26
46 °FPassing clouds.12 mph82%29.74 "HgN/A
11:25 PM46 °FPassing clouds.12 mph82%29.74 "HgN/A
Weather by CustomWeather, © 2015

See weather overviewHow to use our weather pages